Alice, TX

9:54 PM CDT on September 20, 2017 (GMT -0500)
Alice International

Weather History for KALI - October, 2013

Change the Weather History Date:

Saturday, October 26, 2013

  Actual Average Record
Temperature  
Mean Temperature 74 °F -  
Max Temperature 87 °F 81 °F 93 °F (1996)
Min Temperature 61 °F 61 °F 42 °F (2005)
Cooling Degree Days 8    
Growing Degree Days 24 (Base 50)    
Moisture  
Dew Point 64 °F    
Average Humidity 76    
Maximum Humidity 97    
Minimum Humidity 48    
Precipitation  
Precipitation 0.00 in - - ()
Sea Level Pressure  
Sea Level Pressure 30.11 in    
Wind  
Wind Speed 7 mph (ESE)    
Max Wind Speed 17 mph    
Max Gust Speed 23 mph    
Visibility 10 miles    
Events      
Averages and records for this station are not official NWS values.
T = Trace of Precipitation, MM = Missing Value Source: NWS Daily Summary

Daily Weather History Graph

Daily Weather History Graph

Search for Another Location

Airport or City:

Trip Planner

Search our weather history database for the weather conditions in past years. The results will help you decide how hot, cold, wet, or windy it might be!

Date:

Astronomy

Oct. 26, 2013 Rise Set
Actual Time 7:39 AM CDT 6:52 PM CDT
Civil Twilight 7:15 AM CDT 7:16 PM CDT
Nautical Twilight 6:47 AM CDT 7:43 PM CDT
Astronomical Twilight 6:20 AM CDT 8:11 PM CDT
Moon 12:21 AM CDT (10/26) 1:51 PM CDT (10/26)
Length of Visible Light 12h 01m
Length of Day
11h 13m
Waning Gibbous, 53% of the Moon is Illuminated
Oct 26
Waning Gibbous
Oct 26
Last Quarter
Nov 3
New
Nov 9
First Quarter
Nov 17
Full

Hourly Weather History & Observations

Time (CDT) Temp. Heat Index Dew Point Humidity Pressure Visibility Wind Dir Wind Speed Gust Speed Precip Events Conditions
12:53 AM 64.0 °F - 61.0 °F 90% 30.17 in 10.0 mi ENE 3.5 mph - N/A   Clear
1:53 AM 63.0 °F - 61.0 °F 93% 30.16 in 10.0 mi NE 3.5 mph - N/A   Clear
2:53 AM 63.0 °F - 60.1 °F 90% 30.15 in 10.0 mi ENE 4.6 mph - N/A   Clear
3:53 AM 63.0 °F - 61.0 °F 93% 30.13 in 9.0 mi ENE 3.5 mph - N/A   Clear
4:53 AM 62.1 °F - 60.1 °F 93% 30.12 in 8.0 mi East 3.5 mph - N/A   Clear
5:53 AM 61.0 °F - 60.1 °F 97% 30.12 in 10.0 mi ESE 3.5 mph - N/A   Clear
6:53 AM 63.0 °F - 61.0 °F 93% 30.13 in 10.0 mi East 3.5 mph - N/A   Clear
7:53 AM 63.0 °F - 62.1 °F 97% 30.14 in 8.0 mi Calm Calm - N/A   Clear
8:53 AM 68.0 °F - 66.0 °F 93% 30.15 in 10.0 mi ESE 3.5 mph - N/A   Mostly Cloudy
9:53 AM 79.0 °F - 66.9 °F 66% 30.17 in 10.0 mi SE 15.0 mph 20.7 mph N/A   Scattered Clouds
10:53 AM 81.0 °F 83.0 °F 66.0 °F 60% 30.17 in 10.0 mi SSE 15.0 mph 23.0 mph N/A   Mostly Cloudy
11:53 AM 82.0 °F 83.8 °F 64.9 °F 56% 30.17 in 10.0 mi SE 15.0 mph 23.0 mph N/A   Overcast
12:53 PM 86.0 °F 87.3 °F 64.0 °F 48% 30.14 in 10.0 mi SSE 16.1 mph 21.9 mph N/A   Mostly Cloudy
1:53 PM 86.0 °F 87.3 °F 64.0 °F 48% 30.11 in 10.0 mi SSE 17.3 mph 23.0 mph N/A   Mostly Cloudy
2:53 PM 82.0 °F 83.4 °F 64.0 °F 54% 30.08 in 10.0 mi SE 15.0 mph 19.6 mph N/A   Overcast
3:53 PM 82.9 °F 84.4 °F 64.0 °F 53% 30.07 in 10.0 mi SE 17.3 mph 21.9 mph N/A   Overcast
4:53 PM 82.0 °F 83.8 °F 64.9 °F 56% 30.06 in 10.0 mi ESE 12.7 mph 23.0 mph N/A   Overcast
5:53 PM 80.1 °F 81.9 °F 64.9 °F 60% 30.06 in 10.0 mi SE 15.0 mph 23.0 mph N/A   Overcast
6:53 PM 78.1 °F - 66.0 °F 66% 30.06 in 10.0 mi SE 16.1 mph - N/A   Overcast
7:53 PM 75.9 °F - 64.9 °F 69% 30.06 in 10.0 mi SE 9.2 mph - N/A   Clear
8:53 PM 72.0 °F - 64.9 °F 78% 30.08 in 10.0 mi ESE 4.6 mph - N/A   Clear
9:53 PM 69.1 °F - 64.9 °F 87% 30.08 in 10.0 mi SE 3.5 mph - N/A   Clear
10:53 PM 66.9 °F - 64.0 °F 90% 30.07 in 10.0 mi SE 5.8 mph - N/A   Clear
11:53 PM 66.9 °F - 64.9 °F 93% 30.06 in 10.0 mi South 3.5 mph - N/A   Clear